Voltar ao catálogo

JILIN-01-09

AtivoCiênciaSSO
NORAD 43943·PAYLOAD·🇨🇳 China

Lançado Jan 21, 2019 de Jiuquan Satellite Launch Center

Loading…

Próximas Passagens (próximas 24 horas)

TLE

AtualizadoSource: Space-Track

Época: Sep 14, 2026, 14:16 UTC

1 43943U 19005B   26257.59466756  .00003769  00000-0  17225-3 0  9993
2 43943  97.4736 351.8324 0003460 120.6004 239.5573 15.21171752422737

Acompanhe JILIN-01-09 em tempo real com AllMySat

Download on the App Store